Wind_Speed
9 9 11 11 10 10 9 9 9 10 10 9 8 6 5 4 3 2 2 1 0 0 1 1 2 2 1 1 1 1 2 2 2 3 3 3 3 3 3 3 4 4 4
11 11 12 12 12 11 10 9 10 10 10 9 8 7 6 5 4 3 2 2 2 1 1 1 2 2 1 1 1 1 1 1 2 2 2 2 3 3 3 3 3 4 4
13 12 14 13 13 12 11 11 11 11 11 10 9 8 7 6 5 4 4 3 3 3 3 3 2 2 2 2 1 1 1 1 1 1 2 2 2 3 3 3 3 3 4
13 13 15 15 14 13 12 12 12 12 12 11 10 10 8 8 7 6 5 5 5 4 4 4 4 3 3 2 2 1 1 1 1 2 2 2 2 3 3 3 4 4 4
13 14 15 15 14 13 13 12 13 13 12 12 12 11 10 9 8 7 7 7 6 6 6 6 5 5 4 3 3 2 1 1 2 2 2 2 3 3 3 4 4 4 4
14 15 15 15 15 14 13 13 13 13 13 13 13 12 12 11 10 9 9 8 8 8 7 7 7 6 5 4 4 3 3 2 2 2 3 3 3 3 4 4 4 5 5
15 16 16 17 16 15 15 14 14 14 14 13 13 13 13 13 12 11 11 10 10 9 9 8 8 7 6 5 5 4 4 4 4 4 4 4 4 4 4 4 5 5 5
16 17 18 17 17 16 16 15 15 15 14 14 14 14 14 14 13 13 12 11 11 11 10 10 9 8 7 7 6 6 5 5 5 5 5 5 5 5 5 5 6 6 6
15 16 16 17 17 17 17 17 16 16 15 15 15 15 15 15 14 14 13 13 12 12 11 11 10 9 9 8 8 8 7 7 7 6 6 6 6 6 7 7 7 7 8
16 16 16 17 18 19 19 18 18 17 16 16 16 15 15 15 15 15 14 14 13 13 13 12 11 11 10 10 10 9 9 9 8 8 8 8 8 8 8 9 9 9 9
17 16 18 18 18 18 18 19 19 18 18 17 17 16 16 16 16 16 15 15 14 14 13 13 13 12 12 12 11 11 11 11 10 10 10 10 10 10 11 11 11 12 12
19 18 19 18 18 19 19 19 19 19 19 18 17 16 16 16 17 17 16 16 16 15 15 15 14 14 14 13 13 13 13 13 12 12 12 12 12 12 13 14 14 14 14
20 19 19 19 19 19 19 20 21 20 20 19 18 17 17 17 17 17 17 17 17 17 16 16 16 16 16 16 15 15 15 15 14 14 14 14 14 14 14 15 15 16 16
20 20 19 20 20 20 21 22 22 22 21 20 20 19 19 19 19 18 19 18 18 18 18 18 18 18 18 17 17 16 16 16 16 16 16 16 16 16 16 17 17 18 18
22 21 19 19 20 21 21 22 23 22 22 21 20 20 20 20 20 20 20 20 20 19 19 19 20 20 20 19 18 18 18 18 19 18 18 18 18 18 19 19 19 20 21
22 21 21 20 21 21 23 23 22 23 21 21 21 21 21 21 21 22 22 22 21 22 21 21 22 22 21 21 20 20 20 20 21 20 20 20 20 20 20 21 21 21 22
23 23 22 22 22 23 24 25 23 23 23 23 23 23 23 23 23 24 23 23 23 23 23 23 23 23 22 22 22 22 22 22 22 22 22 22 22 23 23 23 23 23 23
25 24 24 23 23 24 25 25 25 25 25 25 26 25 25 25 25 24 24 24 25 25 24 24 24 24 24 24 24 24 24 24 24 24 25 25 25 25 25 25 25 25 25
27 26 24 23 24 26 26 25 25 26 26 26 27 27 27 27 26 26 26 26 26 26 26 26 26 26 26 26 26 26 25 25 26 26 27 27 27 27 26 26 26 27 27
28 26 26 24 24 25 26 25 24 25 25 26 26 26 27 28 28 29 28 28 28 28 28 29 28 29 29 29 28 28 28 28 28 28 28 29 28 28 28 28 28 29 29
30 28 27 26 25 25 25 25 24 24 24 25 26 27 28 28 28 29 27 27 29 30 30 31 31 30 30 31 30 30 30 30 30 30 31 31 31 31 31 30 30 31 32
30 29 28 27 26 26 26 25 25 26 27 27 28 28 28 28 29 28 28 28 30 31 31 31 32 32 32 32 31 31 30 31 31 32 32 33 34 33 33 33 33 34 35
31 30 29 28 27 27 28 28 27 27 28 28 28 29 28 28 29 30 30 31 32 32 32 32 32 33 33 33 33 33 33 33 33 32 34 35 35 34 35 35 36 36 37
31 30 29 29 29 29 29 30 28 27 27 27 28 29 29 29 30 32 32 33 33 33 33 33 33 33 33 33 33 33 33 33 33 33 33 34 34 35 35 36 38 39 39
31 30 30 30 31 31 30 30 29 28 28 27 27 28 30 30 30 31 33 33 33 34 33 33 33 34 33 34 34 33 33 34 34 34 34 35 36 36 37 38 39 41 41
30 30 30 31 31 31 30 30 30 30 29 28 28 28 29 31 32 33 34 35 35 34 34 34 34 35 34 34 35 35 35 35 35 36 36 36 37 37 39 40 41 42 42
Wind_Direction
229 219 211 204 201 203 204 209 214 213 209 203 195 185 175 165 159 151 144 153 143 8 356 342 336 329 318 312 319 324 329 334 340 341 346 347 344 343 348 353 351 345 339
240 228 216 211 207 207 209 215 220 220 217 211 202 195 190 187 184 186 198 215 226 244 266 270 274 274 264 250 252 284 311 329 334 331 336 338 335 336 343 346 342 336 332
238 230 220 215 213 213 215 220 225 226 222 215 208 205 203 203 205 212 223 232 234 236 240 237 238 245 239 230 242 259 290 323 328 325 330 330 329 329 328 330 328 326 323
240 231 223 220 218 217 220 224 225 227 225 221 216 214 213 215 218 223 230 235 236 233 232 228 230 234 232 232 240 240 242 289 313 319 322 327 323 320 316 317 316 317 316
242 236 229 225 223 222 224 227 228 228 227 225 222 220 220 222 225 230 235 236 234 231 230 228 228 229 229 231 233 232 234 259 292 306 310 316 312 309 309 307 302 306 309
246 239 230 227 227 229 228 228 230 230 229 227 225 226 227 229 230 232 235 233 231 229 229 229 228 227 227 228 229 230 230 241 263 282 295 301 302 299 303 305 300 298 303
246 239 236 231 229 229 230 230 231 232 232 230 229 229 230 231 232 233 233 231 228 227 228 229 228 227 227 227 229 231 233 243 256 266 280 285 286 286 289 295 296 295 298
250 241 237 235 231 229 230 232 234 234 232 232 232 231 231 231 233 233 231 229 228 228 228 227 226 226 225 226 229 232 237 248 258 264 271 271 273 274 280 286 290 294 294
256 251 241 238 235 233 234 235 236 236 234 235 235 235 234 233 233 233 231 229 229 229 227 225 224 225 224 226 230 234 240 247 252 256 263 263 267 274 278 285 287 289 290
258 250 243 240 237 237 236 237 237 237 235 235 237 238 237 235 234 233 232 230 229 228 226 225 224 225 227 230 233 237 241 245 248 250 257 263 270 275 278 280 284 286 287
257 251 243 240 240 240 237 237 237 236 236 235 237 237 237 235 235 234 234 232 230 228 227 226 227 228 231 233 236 239 243 247 249 252 259 264 270 275 277 281 285 285 285
253 250 244 244 241 239 238 239 237 234 235 235 236 238 237 236 236 236 234 233 232 231 230 230 231 232 234 236 239 242 246 250 254 258 263 266 271 275 278 282 285 287 284
252 249 247 246 244 240 240 240 238 236 235 235 238 240 238 237 238 237 236 235 235 235 234 233 234 235 236 238 241 245 248 251 256 259 264 267 271 275 280 281 282 284 283
249 245 249 246 244 242 240 238 238 239 236 237 239 239 238 236 237 238 238 237 237 238 236 236 236 237 239 241 244 248 252 254 257 262 266 269 271 275 279 281 282 282 281
246 246 250 246 242 243 241 240 238 238 238 237 238 239 237 236 237 239 239 238 238 239 238 238 238 239 241 243 246 249 255 259 261 265 268 271 274 278 279 282 282 282 282
245 245 246 245 243 243 243 242 239 240 239 238 238 239 239 238 238 239 240 240 240 241 241 242 242 242 243 244 247 251 255 259 263 265 268 271 274 278 280 282 283 282 281
244 246 244 243 243 243 244 245 242 242 242 241 241 242 241 241 240 241 242 243 243 242 241 243 243 244 244 245 248 252 255 259 262 265 268 272 275 277 279 280 283 283 283
243 247 248 245 243 244 245 245 246 246 243 243 243 244 243 243 242 242 243 244 244 244 244 245 246 246 247 249 251 254 257 261 264 266 269 271 274 277 279 279 280 281 282
244 247 249 249 247 245 245 246 249 250 248 246 245 243 246 245 244 243 246 247 246 246 246 247 247 248 250 252 254 257 260 264 267 269 270 272 274 277 280 281 280 281 281
245 247 249 250 251 250 247 248 249 252 252 252 249 249 249 247 246 245 247 248 247 249 249 249 249 251 252 253 256 259 262 265 268 269 269 272 274 276 278 281 282 282 282
243 246 249 249 251 253 252 252 255 255 255 254 253 252 252 251 251 250 246 247 250 252 252 251 251 252 252 255 258 261 263 266 268 269 270 272 274 276 278 279 280 281 281
242 244 248 251 252 257 258 257 258 258 257 255 255 254 253 251 250 248 248 249 252 252 253 255 253 252 255 257 259 261 263 266 269 271 272 273 274 275 276 278 279 280 281
243 247 250 252 253 257 258 259 260 260 258 256 256 256 254 253 251 251 250 249 251 253 253 255 253 254 256 257 258 261 263 267 268 270 271 272 273 275 277 277 279 279 280
243 247 250 253 255 257 258 259 262 264 263 261 260 258 257 256 254 252 250 250 250 250 252 254 253 255 256 256 258 261 264 267 269 271 272 273 275 276 277 279 279 279 280
242 246 249 252 255 257 259 260 262 266 267 266 265 262 258 256 255 254 249 249 251 251 251 251 253 254 255 256 259 263 265 268 270 271 272 275 276 278 280 281 281 281 281
242 245 249 251 256 258 259 259 261 264 266 267 268 265 261 258 255 254 252 250 250 251 250 251 252 254 255 257 260 263 266 267 269 272 275 276 278 279 281 283 282 281 282
Height
5898 5898 5898 5898 5898 5898 5899 5900 5901 5902 5902 5903 5903 5903 5903 5904 5904 5904 5905 5905 5905 5905 5905 5905 5905 5905 5905 5905 5905 5905 5905 5905 5904 5904 5904 5903 5903 5902 5902 5902 5901 5901 5900
5896 5896 5896 5896 5897 5897 5897 5898 5899 5900 5901 5901 5901 5901 5902 5902 5902 5903 5903 5904 5904 5904 5904 5904 5904 5904 5904 5904 5904 5904 5904 5904 5904 5903 5903 5902 5902 5902 5901 5901 5901 5900 5900
5894 5894 5894 5895 5895 5895 5896 5897 5898 5898 5899 5899 5899 5900 5900 5900 5901 5901 5902 5902 5903 5903 5903 5903 5903 5903 5903 5903 5903 5903 5903 5903 5903 5902 5902 5902 5901 5901 5900 5900 5900 5900 5899
5891 5892 5892 5893 5893 5894 5894 5895 5896 5896 5897 5897 5898 5898 5898 5899 5899 5900 5900 5901 5901 5901 5901 5902 5902 5902 5902 5902 5902 5902 5902 5902 5902 5902 5901 5901 5901 5900 5900 5899 5899 5899 5899
5889 5890 5890 5891 5892 5892 5893 5893 5894 5894 5895 5895 5896 5896 5896 5897 5897 5898 5898 5899 5899 5900 5900 5900 5900 5900 5900 5900 5901 5901 5901 5901 5901 5901 5900 5900 5900 5899 5899 5899 5898 5898 5898
5887 5887 5887 5888 5889 5890 5890 5891 5892 5892 5893 5893 5894 5894 5894 5895 5895 5896 5897 5897 5897 5898 5898 5899 5899 5899 5899 5899 5899 5899 5899 5900 5900 5899 5899 5899 5899 5898 5898 5898 5897 5897 5897
5884 5884 5884 5885 5886 5887 5888 5888 5889 5890 5890 5891 5891 5892 5892 5893 5893 5894 5895 5895 5896 5896 5896 5897 5897 5897 5897 5898 5898 5898 5898 5898 5898 5898 5898 5898 5898 5897 5897 5897 5897 5896 5896
5881 5881 5881 5882 5882 5883 5885 5886 5887 5887 5888 5888 5889 5889 5890 5890 5891 5892 5892 5893 5893 5894 5894 5895 5895 5895 5896 5896 5896 5897 5897 5897 5897 5897 5896 5897 5896 5896 5896 5896 5895 5895 5895
5878 5878 5878 5879 5880 5880 5882 5883 5884 5884 5885 5885 5886 5886 5887 5887 5888 5889 5890 5890 5891 5892 5892 5893 5893 5893 5894 5894 5895 5895 5895 5895 5895 5895 5895 5895 5895 5895 5894 5894 5894 5893 5893
5875 5875 5875 5876 5876 5877 5878 5879 5880 5881 5881 5882 5883 5883 5884 5884 5885 5886 5887 5888 5889 5889 5890 5890 5891 5891 5892 5892 5893 5893 5893 5893 5893 5893 5893 5893 5893 5893 5893 5892 5891 5891 5890
5871 5871 5872 5872 5873 5874 5875 5876 5876 5877 5878 5878 5879 5880 5880 5881 5882 5883 5884 5885 5886 5887 5887 5888 5889 5889 5889 5890 5890 5891 5891 5891 5891 5891 5891 5891 5891 5891 5890 5890 5889 5888 5888
5868 5868 5868 5869 5870 5870 5871 5872 5872 5873 5874 5874 5876 5876 5877 5878 5878 5879 5881 5882 5883 5884 5884 5885 5886 5886 5887 5887 5887 5888 5888 5889 5889 5889 5889 5889 5888 5888 5887 5887 5886 5885 5885
5864 5864 5865 5865 5866 5867 5868 5868 5868 5869 5870 5871 5872 5873 5873 5874 5875 5875 5877 5878 5879 5880 5881 5882 5883 5884 5884 5884 5884 5885 5885 5886 5886 5886 5886 5886 5885 5885 5884 5884 5883 5882 5881
5860 5860 5860 5861 5862 5863 5864 5864 5864 5865 5866 5867 5868 5869 5869 5870 5871 5872 5873 5874 5876 5877 5878 5879 5880 5880 5881 5881 5881 5882 5882 5882 5883 5883 5883 5882 5882 5881 5881 5880 5879 5878 5877
5856 5856 5856 5856 5857 5858 5859 5860 5860 5860 5862 5863 5864 5865 5865 5866 5867 5868 5869 5871 5872 5873 5874 5875 5876 5877 5877 5878 5878 5879 5879 5879 5879 5879 5879 5878 5878 5877 5877 5876 5875 5874 5873
5851 5851 5852 5852 5853 5854 5855 5855 5856 5857 5858 5859 5860 5861 5861 5862 5863 5864 5865 5867 5868 5869 5870 5871 5872 5873 5874 5874 5875 5875 5875 5875 5875 5875 5874 5874 5873 5873 5872 5871 5870 5869 5869
5846 5846 5847 5848 5849 5849 5850 5851 5852 5852 5853 5854 5855 5856 5855 5857 5858 5859 5861 5863 5864 5865 5866 5867 5868 5869 5869 5870 5870 5870 5870 5870 5870 5870 5870 5869 5869 5868 5868 5867 5866 5865 5864
5841 5841 5842 5843 5844 5844 5845 5846 5846 5847 5848 5849 5849 5850 5850 5852 5854 5854 5856 5858 5859 5860 5861 5862 5863 5864 5865 5865 5865 5866 5866 5865 5865 5865 5865 5864 5864 5863 5862 5861 5861 5860 5858
5835 5836 5836 5837 5838 5839 5839 5841 5841 5841 5842 5844 5845 5845 5846 5847 5849 5850 5851 5852 5854 5855 5856 5857 5858 5859 5860 5860 5860 5861 5861 5861 5860 5860 5859 5859 5858 5857 5856 5856 5854 5854 5852
5829 5830 5831 5832 5833 5833 5834 5835 5836 5836 5836 5837 5839 5840 5841 5842 5843 5844 5845 5846 5848 5849 5850 5851 5852 5853 5854 5855 5855 5855 5855 5855 5855 5854 5854 5853 5852 5851 5850 5849 5848 5847 5846
5823 5824 5825 5826 5827 5828 5829 5829 5830 5830 5831 5831 5833 5834 5835 5836 5837 5838 5839 5840 5842 5843 5845 5845 5846 5847 5848 5848 5849 5850 5849 5849 5849 5848 5847 5846 5846 5844 5844 5843 5842 5840 5839
5817 5818 5819 5820 5822 5822 5823 5823 5823 5824 5825 5826 5827 5827 5828 5829 5830 5831 5833 5834 5835 5837 5838 5838 5839 5840 5841 5842 5843 5843 5843 5843 5842 5841 5840 5840 5839 5838 5836 5835 5834 5833 5831
5811 5812 5814 5815 5816 5817 5817 5817 5818 5818 5818 5819 5819 5820 5821 5822 5823 5823 5825 5826 5828 5829 5831 5832 5832 5833 5834 5835 5835 5836 5836 5836 5835 5834 5833 5832 5831 5830 5829 5827 5826 5824 5823
5805 5806 5808 5809 5810 5810 5811 5812 5812 5812 5812 5812 5812 5813 5814 5814 5815 5816 5817 5819 5820 5821 5823 5824 5825 5826 5827 5827 5828 5828 5828 5828 5827 5827 5826 5824 5823 5822 5820 5818 5817 5815 5813
5798 5800 5801 5802 5803 5803 5804 5805 5806 5806 5806 5805 5805 5804 5806 5807 5808 5808 5809 5810 5812 5813 5815 5816 5817 5818 5819 5819 5820 5820 5820 5820 5819 5818 5818 5816 5815 5813 5811 5810 5808 5806 5803
5792 5793 5795 5795 5796 5797 5798 5799 5799 5799 5799 5798 5797 5797 5798 5799 5799 5800 5801 5803 5804 5805 5807 5808 5809 5810 5811 5811 5812 5812 5812 5811 5810 5809 5808 5807 5806 5804 5802 5800 5798 5795 5793